TimeCST,TemperatureF,Dew PointF,Humidity,Sea Level PressureIn,VisibilityMPH,Wind Direction,Wind SpeedMPH,Gust SpeedMPH,PrecipitationIn,Events,Conditions,WindDirDegrees,DateUTC
12:54 AM,30.0,27.0,88,29.91,7.0,WNW,15.0,-,N/A,,Overcast,300,2013-02-28 06:54:00
1:54 AM,30.0,27.0,88,29.91,7.0,NW,15.0,-,N/A,,Overcast,310,2013-02-28 07:54:00
2:54 AM,30.0,27.0,88,29.91,8.0,NW,15.0,-,N/A,,Overcast,310,2013-02-28 08:54:00
3:54 AM,30.0,27.0,88,29.92,8.0,NW,13.8,-,N/A,,Overcast,310,2013-02-28 09:54:00
4:54 AM,30.0,27.0,88,29.95,8.0,NW,13.8,-,N/A,,Overcast,310,2013-02-28 10:54:00
5:37 AM,30.2,26.6,86,29.94,8.0,NW,13.8,-,N/A,,Overcast,310,2013-02-28 11:37:00
5:54 AM,30.0,26.1,85,29.97,7.0,NW,15.0,-,N/A,,Overcast,320,2013-02-28 11:54:00
6:09 AM,30.2,26.6,86,29.95,8.0,NW,16.1,-,N/A,,Overcast,320,2013-02-28 12:09:00
6:54 AM,28.9,25.0,85,29.99,6.0,NW,13.8,-,N/A,,Overcast,310,2013-02-28 12:54:00
7:54 AM,28.9,25.0,85,30.02,5.0,NW,15.0,-,N/A,,Overcast,310,2013-02-28 13:54:00
8:19 AM,28.4,24.8,86,30.01,6.0,WNW,16.1,-,N/A,,Overcast,300,2013-02-28 14:19:00
8:54 AM,28.9,25.0,85,30.04,7.0,NW,18.4,-,N/A,,Overcast,310,2013-02-28 14:54:00
9:54 AM,30.0,25.0,82,30.05,7.0,NW,18.4,-,N/A,,Overcast,310,2013-02-28 15:54:00
10:54 AM,30.0,25.0,82,30.06,7.0,NW,18.4,-,N/A,,Overcast,310,2013-02-28 16:54:00
11:54 AM,30.9,25.0,79,30.07,7.0,NW,13.8,-,N/A,,Overcast,310,2013-02-28 17:54:00
12:54 PM,30.9,25.0,79,30.07,9.0,NW,15.0,-,N/A,,Overcast,310,2013-02-28 18:54:00
1:06 PM,30.2,24.8,80,30.05,9.0,NW,12.7,-,N/A,,Overcast,310,2013-02-28 19:06:00
1:54 PM,32.0,26.1,79,30.07,8.0,NW,15.0,-,N/A,,Overcast,310,2013-02-28 19:54:00
2:54 PM,32.0,26.6,80,30.06,8.0,NW,15.0,-,N/A,,Overcast,310,2013-02-28 20:54:00
3:54 PM,32.0,26.1,79,30.09,3.0,NW,10.4,-,0.00,Snow,Light Snow,320,2013-02-28 21:54:00
4:05 PM,32.0,26.6,80,30.07,2.5,NW,10.4,-,0.00,Snow,Light Snow,320,2013-02-28 22:05:00
4:22 PM,32.0,26.6,80,30.07,1.0,NW,9.2,-,0.00,Snow,Light Snow,320,2013-02-28 22:22:00
4:37 PM,30.2,26.6,86,30.07,1.2,NW,11.5,-,0.00,Snow,Light Snow,310,2013-02-28 22:37:00
4:54 PM,30.9,28.0,89,30.10,1.2,NW,11.5,-,0.00,Snow,Light Snow,310,2013-02-28 22:54:00
5:10 PM,30.2,28.4,93,30.08,1.0,NW,10.4,-,0.00,Snow,Light Snow,310,2013-02-28 23:10:00
5:34 PM,30.2,28.4,93,30.08,2.0,NW,8.1,-,0.00,Snow,Light Snow,310,2013-02-28 23:34:00
5:54 PM,30.2,28.4,93,30.09,2.5,WNW,9.2,-,N/A,Snow,Light Snow,300,2013-02-28 23:54:00
6:10 PM,30.2,28.4,93,30.09,4.0,WNW,9.2,-,0.00,,Overcast,300,2013-03-01 00:10:00
6:54 PM,30.9,28.0,89,30.12,3.0,NW,11.5,-,0.00,Snow,Light Snow,310,2013-03-01 00:54:00
7:12 PM,30.2,28.4,93,30.10,2.5,NW,10.4,-,0.00,Snow,Light Snow,320,2013-03-01 01:12:00
7:19 PM,30.2,28.4,93,30.10,3.0,WNW,9.2,-,0.00,Snow,Light Snow,300,2013-03-01 01:19:00
7:54 PM,30.0,27.0,88,30.12,2.5,NW,11.5,-,0.00,Snow,Light Snow,310,2013-03-01 01:54:00
8:01 PM,30.2,26.6,86,30.10,2.5,NW,11.5,-,0.00,Snow,Light Snow,310,2013-03-01 02:01:00
8:25 PM,28.4,26.6,93,30.10,2.0,NW,11.5,-,0.00,Snow,Light Snow,310,2013-03-01 02:25:00
8:54 PM,28.4,26.6,93,30.10,2.0,NW,10.4,-,N/A,Snow,Light Snow,310,2013-03-01 02:54:00
9:14 PM,28.4,26.6,93,30.10,1.8,NW,9.2,-,0.00,Snow,Light Snow,310,2013-03-01 03:14:00
9:21 PM,28.4,26.6,93,30.10,2.0,NW,10.4,-,0.00,Snow,Light Snow,310,2013-03-01 03:21:00
9:54 PM,28.9,27.0,92,30.13,3.0,NW,10.4,-,0.00,Snow,Light Snow,310,2013-03-01 03:54:00
10:54 PM,28.9,26.1,89,30.13,2.5,NW,11.5,-,0.00,Snow,Light Snow,320,2013-03-01 04:54:00
11:05 PM,28.4,26.6,93,30.10,3.0,NW,9.2,-,0.00,Snow,Light Snow,320,2013-03-01 05:05:00
11:54 PM,28.0,26.1,92,30.12,2.5,NW,11.5,-,0.00,Snow,Light Snow,320,2013-03-01 05:54:00